Preview of NWS' New Version of Forecast
This preview is not operational and should not be used for support decisions.

Regional Weather Roundup (RWR)

Issued by Gray - Portland, ME (GYX)

                            
000
ASUS41 KGYX 210605
RWRGYX
WEATHER ROUNDUP FOR MAINE AND NEW HAMPSHIRE
NATIONAL WEATHER SERVICE GRAY ME
200 AM EDT WED AUG 21 2019

MEZ002-005-006-010-012-015-018-020-021-024-026-027-029-210700-
MAINE
  
CITY           SKY/WX    TMP DP  RH WIND       PRES   REMARKS
PORTLAND       FAIR      66  60  81 S3        30.02F                  
6HR MIN TEMP:  63; 6HR MAX TEMP:  73;                                

SANFORD        FAIR      55  54  96 CALM      30.03F                  
BAR HARBOR     FAIR      62  58  86 SW5       30.02F                  
WISCASSET      FAIR      57  54  89 CALM      30.03F                  
6HR MIN TEMP:  57; 6HR MAX TEMP:  67;                                

ROCKLAND       FAIR      58  56  93 CALM      30.02F                  
FRYEBURG       FAIR      57  54  89 CALM      30.03S                  
6HR MIN TEMP:  56; 6HR MAX TEMP:  68;                                

LEWISTONAUBURN FAIR      59  57  93 CALM      30.03R                  
AUGUSTA        FAIR      62  57  83 S3        30.02F                  
6HR MIN TEMP:  62; 6HR MAX TEMP:  73;                                

WATERVILLE     FAIR      61  57  87 SW5       30.00S                  
BANGOR         FAIR      63  58  83 S5        30.02S                  
6HR MIN TEMP:  62; 6HR MAX TEMP:  71;                                

GREENVILLE     NOT AVBL                                               
MILLINOCKET    FAIR      59  57  93 CALM      30.01F                  
6HR MIN TEMP:  59; 6HR MAX TEMP:  73;                                

HOULTON        FAIR      56  53  90 CALM      29.98F                  
6HR MIN TEMP:  55; 6HR MAX TEMP:  65;                                

PRESQUE ISLE   FAIR      55  53  93 CALM      29.99S                  
6HR MIN TEMP:  55; 6HR MAX TEMP:  72;                                

FRENCHVILLE    FAIR      62  51  67 SW7       29.96F                  
6HR MIN TEMP:  61; 6HR MAX TEMP:  70;                                

CARIBOU        FAIR      60  54  80 SW3       29.97S                  
6HR MIN TEMP:  59; 6HR MAX TEMP:  71;                                

$$

NHZ002-005-008-009-011-012-014-210700-
NEW HAMPSHIRE
  
CITY           SKY/WX    TMP DP  RH WIND       PRES   REMARKS
ROCHESTER      FAIR      60  57  89 CALM      30.03S                  
6HR MIN TEMP:  59; 6HR MAX TEMP:  72;                                

NASHUA         FAIR      63  63 100 CALM      30.04S                  
MANCHESTER     FAIR      67  61  81 CALM      30.02S                  
6HR MIN TEMP:  67; 6HR MAX TEMP:  82;                                

CONCORD        FAIR      59  57  93 CALM      30.04R                  
6HR MIN TEMP:  57; 6HR MAX TEMP:  73;                                

LACONIA        FAIR      59  58  96 CALM      30.04F                  
PLYMOUTH       FAIR      55  54  96 CALM      30.04F FOG              
BERLIN         NOT AVBL                                               
WHITEFIELD     FAIR      51  48  89 CALM      30.04F                  
6HR MIN TEMP:  51; 6HR MAX TEMP:  67; 6HR PCP: TRACE;                

JAFFREY        FAIR      60  57  89 CALM      30.07F                  
6HR MIN TEMP:  60; 6HR MAX TEMP:  69;                                

KEENE          FAIR      59  59 100 CALM      30.05F                  
LEBANON        FAIR      58  53  84 CALM      30.03F                  
6HR MIN TEMP:  57; 6HR MAX TEMP:  70;                                

MT WASHINGTON  NOT AVBL                                               
$$

VTZ005-007-008-210700-
VERMONT
  
CITY           SKY/WX    TMP DP  RH WIND       PRES   REMARKS
ST JOHNSBURY     N/A     58  57  97 MISG      30.01F                  
MONTPELIER     FAIR      56  54  93 CALM      30.06F                  
BURLINGTON     FAIR      63  58  83 E5        29.97F                  
$$

MAZ007-012-024-CTZ003-RIZ002-NYZ038-NYZ072-210700-
SOUTHERN NEW ENGLAND AND NY
  
CITY           SKY/WX    TMP DP  RH WIND       PRES   REMARKS
BOSTON         PTCLDY    70  61  73 S5        30.04R                  
WORCESTER      FAIR      68  62  81 W8        30.07S                  
NANTUCKET      FAIR      68  67  96 S7        30.07S                  
PROVIDENCE     FAIR      69  64  84 CALM      30.06R                  
HARTFORD       FAIR      71  65  81 CALM      30.03S                  
ALBANY         FAIR      68  64  87 CALM      30.00F                  
NEW YORK CITY  FAIR      78  72  81 S10       30.03S                  
$$

ANZ081-ANZ082-ANZ150-NHZ014-MEZ023>029-210700-
COASTAL MARINE OBSERVATIONS
  
STATION/POSITION TIME  TEMP    WIND        PRES    WAVE
                       AIR SEA DIR/SP/G            HT/PER
                 (UTC) (F)     (DEG/KT/KT) (MB)    (FT/S)
MATINICUS ROCK   0550   64                 1016.4F
ISLE OF SHOALS   0500   68     220/  6/  7 1016.2F
JEFFREYS LEDGE   0538      67                N/A     2/11
CASHES LEDGE BUO 0550   65 63  170/  6/  8 1017.1F   2/11
GEORGES BANK BUO 0550   67 71  290/  2/  4 1019.0F   2/ 9
$$

.............KEY..............
   WCI - WIND CHILL
   TC  - TEMPERATURE IN CELSIUS
   VSB - VISIBILITY IN MILES
   HX  - HEAT INDEX
   FAIR- INDICATES FEW OR NO CLOUDS BELOW 12,000 FT, WITH NO 
         SIGNIFICANT WEATHER AND/OR OBSTRUCTIONS TO VISIBILITY.